Date,TemperatureHighF,TemperatureAvgF,TemperatureLowF,DewpointHighF,DewpointAvgF,DewpointLowF,HumidityHigh,HumidityAvg,HumidityLow,PressureMaxIn,PressureMinIn,WindSpeedMaxMPH,WindSpeedAvgMPH,GustSpeedMaxMPH,PrecipitationSumIn
2013-7-1,71,65,60,63,61,58,94,87,74,30.05,29.90,4,2,12,0.22
2013-7-2,77,67,58,68,62,57,95,85,70,30.07,30.00,3,1,6,0.00
2013-7-3,92,77,64,74,68,63,98,77,49,30.12,30.05,3,1,6,0.19
2013-7-4,86,75,70,71,69,68,96,83,58,30.16,30.08,3,1,7,0.07
2013-7-5,84,75,70,73,69,67,95,82,62,30.11,30.04,5,1,10,0.13
2013-7-6,87,77,68,72,69,66,95,76,55,30.13,30.00,4,1,9,0.00
2013-7-7,82,75,71,71,69,66,96,81,63,30.03,29.92,6,2,12,0.05
2013-7-8,83,75,70,72,69,66,94,81,60,30.04,29.95,5,2,11,0.00
2013-7-9,82,74,70,72,70,68,94,86,71,30.01,29.87,3,1,7,0.03
2013-7-10,79,72,70,73,68,61,97,87,70,29.87,29.69,7,2,16,0.00
2013-7-11,78,70,62,62,58,55,81,67,46,29.99,29.82,3,1,8,0.00
2013-7-13,75,73,71,70,69,68,93,88,83,30.22,30.19,0,0,1,0.01
2013-7-14,93,80,66,74,70,65,97,73,48,30.28,30.20,3,1,7,0.01
2013-7-15,93,82,74,75,71,59,91,71,40,30.27,30.21,3,0,7,0.00
2013-7-16,93,83,73,75,71,65,95,71,40,30.26,30.17,3,1,6,0.00
2013-7-17,90,81,77,80,76,72,98,85,63,30.21,30.06,6,2,12,0.03
2013-7-18,92,82,76,78,75,72,96,80,58,30.09,29.92,5,2,12,0.00
2013-7-19,90,82,68,76,73,65,97,74,56,29.92,29.69,7,3,26,1.35
2013-7-20,84,74,66,72,68,62,98,83,55,29.87,29.69,4,1,10,0.37
2013-7-21,80,72,65,65,62,58,85,69,52,29.97,29.87,3,0,6,0.00
2013-7-22,81,71,59,68,63,58,96,78,58,29.97,29.75,2,0,8,0.00
2013-7-23,82,72,63,70,66,56,97,82,59,29.75,29.60,5,1,14,0.40
2013-7-24,68,62,53,57,51,48,91,69,49,30.03,29.72,5,2,12,0.00
2013-7-25,76,64,49,57,52,48,97,69,42,30.11,30.03,2,0,8,0.00
2013-7-26,82,66,49,60,54,48,97,67,34,30.11,29.98,2,0,7,0.00
2013-7-27,79,69,59,66,61,55,95,76,53,29.98,29.78,4,1,10,0.57
2013-7-28,68,66,64,65,62,55,94,86,65,29.88,29.76,3,1,6,0.01
2013-7-29,67,64,61,58,57,56,85,79,73,30.14,30.08,3,1,6,0.33
2013-7-30,76,66,55,61,58,53,96,75,53,30.19,30.13,3,1,10,0.00
2013-7-31,82,70,58,64,58,51,94,69,36,30.14,29.90,3,0,7,0.00